DW9029 Weather Reports


Display with metric or nautical units.
time (UTC)temp
F
wind
direction
speed
MPH
gust
MPH
rain 1hr
in
rain 24hr
in
rain mn
in
humidity
%
barometer
mb
20180718104903 82 198 1.0 5.0 0.00 0.00 0.00 49 1014.2
20180718104403 82 213 3.0 12.0 0.00 0.00 0.00 47 1014.1
20180718103903 82 174 2.0 8.0 0.00 0.00 0.00 51 1014.1
20180718103402 82 195 0.0 8.0 0.00 0.00 0.00 47 1014.1
20180718101902 82 205 2.0 7.0 0.00 0.00 0.00 51 1014.2
20180718101402 81 133 1.0 7.0 0.00 0.00 0.00 53 1014.1
20180718100903 81 180 1.0 7.0 0.00 0.00 0.00 54 1014.1
20180718100405 80 236 1.0 5.0 0.00 0.00 0.00 54 1014.2
20180718094903 79 209 5.0 9.0 0.00 0.00 0.00 56 1014.2
20180718094403 80 205 5.0 10.0 0.00 0.00 0.00 50 1014.3
20180718093903 79 169 3.0 9.0 0.00 0.00 0.00 56 1014.2
20180718093403 79 203 2.0 10.0 0.00 0.00 0.00 57 1014.3
20180718091903 78 196 3.0 8.0 0.00 0.00 0.00 57 1014.3
20180718091403 78 241 3.0 8.0 0.00 0.00 0.00 57 1014.3
20180718090903 78 204 5.0 7.0 0.00 0.00 0.00 56 1014.3
20180718090404 77 203 1.0 8.0 0.00 0.00 0.00 59 1014.3
20180718084903 76 216 5.0 7.0 0.00 0.00 0.00 68 1014.4
20180718084403 75 206 1.0 9.0 0.00 0.00 0.00 69 1014.3
20180718083903 74 205 3.0 9.0 0.00 0.00 0.00 70 1014.3
20180718083403 74 208 5.0 8.0 0.00 0.00 0.00 72 1014.4
20180718081904 73 214 3.0 7.0 0.00 0.00 0.00 75 1014.3
20180718081403 73 217 6.0 12.0 0.00 0.00 0.00 75 1014.3
20180718080904 73 211 6.0 12.0 0.00 0.00 0.00 76 1014.3
20180718080403 73 193 0.0 6.0 0.00 0.00 0.00 75 1014.3
20180718074903 71 212 1.0 5.0 0.00 0.00 0.00 76 1014.2
20180718074403 71 221 2.0 7.0 0.00 0.00 0.00 77 1014.1
20180718073903 71 228 3.0 6.0 0.00 0.00 0.00 75 1014.1
20180718073403 72 228 0.0 3.0 0.00 0.00 0.00 70 1014.0
20180718071902 70 165 0.0 3.0 0.00 0.00 0.00 63 1013.8
20180718071403 70 158 2.0 5.0 0.00 0.00 0.00 62 1013.8
20180718070903 70 155 1.0 5.0 0.00 0.00 0.00 60 1013.8
20180718070403 70 151 1.0 6.0 0.00 0.00 0.00 60 1013.7
20180718064903 70 146 0.0 0.0 0.00 0.00 0.00 61 1013.6
20180718023403 73 219 0.0 0.0 0.00 0.00 0.00 59 1012.3
20180718021903 74 247 0.0 0.0 0.00 0.00 0.00 56 1012.3
20180718021402 74 246 0.0 0.0 0.00 0.00 0.00 55 1012.3
20180718020903 74 224 0.0 0.0 0.00 0.00 0.00 55 1012.3
20180718020403 74 238 0.0 0.0 0.00 0.00 0.00 57 1012.2
20180718014902 73 267 0.0 5.0 0.00 0.00 0.00 59 1012.2
20180718014403 73 219 1.0 7.0 0.00 0.00 0.00 60 1012.3
20180718013902 73 236 2.0 8.0 0.00 0.00 0.00 60 1012.3
20180718013402 73 224 5.0 7.0 0.00 0.00 0.00 59 1012.3
20180718011902 72 212 0.0 0.0 0.00 0.00 0.00 62 1012.3
20180718011403 72 199 0.0 0.0 0.00 0.00 0.00 62 1012.3
20180718010902 73 183 0.0 0.0 0.00 0.00 0.00 62 1012.2
20180718010402 72 185 0.0 0.0 0.00 0.00 0.00 62 1012.2
20180718004903 74 179 0.0 0.0 0.00 0.00 0.00 61 1012.2
20180718004403 74 215 0.0 0.0 0.00 0.00 0.00 59 1012.3
20180718003903 74 217 0.0 0.0 0.00 0.00 0.00 60 1012.3
20180718003403 74 210 0.0 0.0 0.00 0.00 0.00 61 1012.2
20180718001902 73 197 0.0 0.0 0.00 0.00 0.00 62 1012.2
20180718001403 74 180 0.0 0.0 0.00 0.00 0.00 61 1012.2
20180718000903 74 169 0.0 0.0 0.00 0.00 0.00 59 1012.1
20180718000402 75 192 0.0 0.0 0.00 0.00 0.00 58 1012.1
20180717234903 75 268 0.0 0.0 0.00 0.00 0.00 57 1012.0
20180717234403 75 256 0.0 0.0 0.00 0.00 0.00 57 1011.9
20180717233902 76 261 0.0 0.0 0.00 0.00 0.00 57 1011.9
20180717233403 76 254 0.0 0.0 0.00 0.00 0.00 56 1012.0
20180717231902 76 178 0.0 0.0 0.00 0.00 0.00 56 1012.1
20180717231403 76 182 0.0 0.0 0.00 0.00 0.00 55 1012.0
20180717230903 75 292 0.0 0.0 0.00 0.00 0.00 58 1012.0
20180717230403 75 296 0.0 0.0 0.00 0.00 0.00 59 1011.9
20180717224902 76 299 0.0 0.0 0.00 0.00 0.00 59 1011.7
20180717224403 75 275 1.0 5.0 0.00 0.00 0.00 59 1011.6
20180717223903 75 262 0.0 0.0 0.00 0.00 0.00 61 1011.6
20180717223402 76 245 1.0 9.0 0.00 0.00 0.00 60 1011.7
20180717221903 77 209 1.0 8.0 0.00 0.00 0.00 56 1011.6
20180717221403 77 214 0.0 6.0 0.00 0.00 0.00 54 1011.5
20180717220902 77 216 1.0 5.0 0.00 0.00 0.00 53 1011.4
20180717220403 78 229 1.0 8.0 0.00 0.00 0.00 53 1011.4
20180717214903 78 228 3.0 7.0 0.00 0.00 0.00 52 1011.2
20180717214402 79 248 3.0 8.0 0.00 0.00 0.00 51 1011.2
20180717213903 79 227 1.0 5.0 0.00 0.00 0.00 51 1011.1
20180717213403 79 267 1.0 10.0 0.00 0.00 0.00 52 1011.2
20180717211903 80 238 1.0 12.0 0.00 0.00 0.00 52 1010.9
20180717211403 80 207 6.0 9.0 0.00 0.00 0.00 51 1010.8
20180717210903 81 203 2.0 9.0 0.00 0.00 0.00 50 1010.8
20180717210402 81 206 3.0 9.0 0.00 0.00 0.00 50 1010.7
20180717204903 82 173 0.0 5.0 0.00 0.00 0.00 45 1010.3
20180717204402 83 172 1.0 9.0 0.00 0.00 0.00 43 1010.2
20180717203903 84 227 1.0 9.0 0.00 0.00 0.00 41 1010.1
20180717203403 85 197 1.0 9.0 0.00 0.00 0.00 40 1009.9
20180717201902 86 202 1.0 7.0 0.00 0.00 0.00 36 1009.6
20180717201402 87 203 0.0 1.0 0.00 0.00 0.00 35 1009.5
20180717200902 87 196 1.0 7.0 0.00 0.00 0.00 34 1009.4
20180717200403 88 226 1.0 9.0 0.00 0.00 0.00 34 1009.3
20180717194903 89 231 2.0 7.0 0.00 0.00 0.00 32 1009.1
20180717194403 89 216 1.0 5.0 0.00 0.00 0.00 32 1009.1
20180717193903 89 219 3.0 7.0 0.00 0.00 0.00 32 1009.0
20180717193402 89 224 1.0 9.0 0.00 0.00 0.00 32 1008.9
20180717191902 90 223 4.0 12.0 0.00 0.00 0.00 31 1008.7
20180717191402 91 226 5.0 10.0 0.00 0.00 0.00 30 1008.8
20180717190903 91 233 5.0 10.0 0.00 0.00 0.00 28 1008.8
20180717190402 91 249 2.0 9.0 0.00 0.00 0.00 28 1008.8
20180717184903 92 235 3.0 10.0 0.00 0.00 0.00 27 1008.8
20180717184403 93 226 3.0 12.0 0.00 0.00 0.00 27 1008.8
20180717183903 93 238 3.0 12.0 0.00 0.00 0.00 27 1008.8
20180717183403 93 222 6.0 16.0 0.00 0.00 0.00 26 1008.7
20180717181903 94 235 4.0 10.0 0.00 0.00 0.00 25 1008.5
20180717181403 94 258 5.0 14.0 0.00 0.00 0.00 25 1008.6
20180717180903 94 238 3.0 10.0 0.00 0.00 0.00 25 1008.5
20180717180403 94 225 7.0 13.0 0.00 0.00 0.00 24 1008.5
20180717174903 95 234 5.0 12.0 0.00 0.00 0.00 24 1008.5
20180717174402 95 241 5.0 13.0 0.00 0.00 0.00 24 1008.5
20180717173903 96 243 6.0 12.0 0.00 0.00 0.00 24 1008.5
20180717173402 96 242 5.0 10.0 0.00 0.00 0.00 25 1008.5
20180717171902 94 193 5.0 12.0 0.00 0.00 0.00 29 1008.6
20180717171403 94 161 1.0 13.0 0.00 0.00 0.00 32 1008.6
20180717170903 94 174 2.0 12.0 0.00 0.00 0.00 32 1008.6
20180717170403 95 186 3.0 9.0 0.00 0.00 0.00 33 1008.7
20180717164904 95 176 2.0 9.0 0.00 0.00 0.00 24 1008.9
20180717164403 95 166 1.0 8.0 0.00 0.00 0.00 24 1008.9
20180717163903 95 187 6.0 12.0 0.00 0.00 0.00 26 1009.0
20180717163403 96 181 0.0 9.0 0.00 0.00 0.00 26 1009.0
20180717161903 95 200 2.0 7.0 0.00 0.00 0.00 26 1009.0
20180717161403 95 113 1.0 8.0 0.00 0.00 0.00 26 1009.1
20180717160903 96 117 1.0 9.0 0.00 0.00 0.00 26 1009.1
20180717160403 96 194 3.0 8.0 0.00 0.00 0.00 26 1009.2
20180717154903 96 175 1.0 7.0 0.00 0.00 0.00 23 1009.5
20180717154403 96 224 3.0 12.0 0.00 0.00 0.00 23 1009.5
20180717153903 96 214 3.0 10.0 0.00 0.00 0.00 23 1009.5
20180717153403 96 223 3.0 12.0 0.00 0.00 0.00 21 1009.6
20180717151903 96 215 3.0 8.0 0.00 0.00 0.00 22 1009.9
20180717151403 96 235 4.0 8.0 0.00 0.00 0.00 22 1009.9
20180717150903 96 206 1.0 6.0 0.00 0.00 0.00 21 1010.0
20180717150403 96 201 4.0 12.0 0.00 0.00 0.00 21 1010.0
20180717144903 96 244 5.0 8.0 0.00 0.00 0.00 20 1010.1
20180717144403 96 221 6.0 12.0 0.00 0.00 0.00 20 1010.2
20180717143903 96 185 5.0 12.0 0.00 0.00 0.00 17 1010.2
20180717143403 96 212 2.0 8.0 0.00 0.00 0.00 16 1010.2
20180717141903 96 144 2.0 9.0 0.00 0.00 0.00 15 1010.4
20180717141402 96 168 1.0 10.0 0.00 0.00 0.00 15 1010.5
20180717140903 96 155 2.0 6.0 0.00 0.00 0.00 16 1010.5
20180717140403 96 164 1.0 10.0 0.00 0.00 0.00 16 1010.5
20180717134903 95 121 5.0 9.0 0.00 0.00 0.00 16 1010.7
20180717134403 95 212 5.0 10.0 0.00 0.00 0.00 18 1010.8
20180717133903 95 141 2.0 7.0 0.00 0.00 0.00 20 1010.8
20180717133403 95 138 4.0 10.0 0.00 0.00 0.00 21 1010.9
20180717131903 95 33 0.0 0.0 0.00 0.00 0.00 24 1011.1
20180717131403 95 219 1.0 6.0 0.00 0.00 0.00 24 1011.2
20180717130903 95 122 1.0 6.0 0.00 0.00 0.00 24 1011.3
20180717130403 95 202 1.0 3.0 0.00 0.00 0.00 24 1011.3
20180717124903 93 212 1.0 3.0 0.00 0.00 0.00 25 1011.5
20180717124403 93 340 0.0 3.0 0.00 0.00 0.00 26 1011.6
20180717123903 92 320 1.0 5.0 0.00 0.00 0.00 26 1011.7
20180717123403 92 288 1.0 6.0 0.00 0.00 0.00 26 1011.7
20180717121903 92 182 3.0 6.0 0.00 0.00 0.00 28 1012.0
20180717121403 92 179 2.0 6.0 0.00 0.00 0.00 29 1012.0
20180717120903 91 223 0.0 0.0 0.00 0.00 0.00 29 1012.1
20180717120403 92 274 0.0 5.0 0.00 0.00 0.00 29 1012.1
20180717114903 90 315 0.0 3.0 0.00 0.00 0.00 31 1012.4
20180717114404 90 356 0.0 2.0 0.00 0.00 0.00 32 1012.4
20180717113902 91 14 1.0 3.0 0.00 0.00 0.00 32 1012.4
20180717113403 90 38 0.0 6.0 0.00 0.00 0.00 33 1012.5
20180717111903 89 31 3.0 8.0 0.00 0.00 0.00 35 1012.7
20180717111403 89 76 0.0 5.0 0.00 0.00 0.00 37 1012.7
20180717110903 89 53 2.0 6.0 0.00 0.00 0.00 37 1012.8
20180717110403 88 23 0.0 3.0 0.00 0.00 0.00 38 1012.9